Вернуться в каталог

STARLINK-32733

АктивенСвязьVLEO
NORAD 62477·PAYLOAD·🇺🇸 United States

Запущен Dec 31, 2024 с Cape Canaveral Space Force Station

Loading…

Ближайшие Пролёты (ближайшие 24 часа)

TLE

СвежийSource: CelesTrak SupGP

Эпоха: Sep 14, 2026, 14:25 UTC

1 62477C 24254R   26257.60118056 -.00045390  00000+0 -16442-2 0  2570
2 62477  43.0042  29.1160 0001779 271.0660 279.0271 15.27595962    16

Отслеживайте STARLINK-32733 в реальном времени с AllMySat

Download on the App Store